GPS BIIR-12

Last updated on Thu Mar 04 2021 06:34:19 GMT+0000 (Coordinated Universal Time)

1 28361U 04023A 21062.67977925 .00000014 00000-0 00000-0 0 9997 2 28361 54.0894 164.9543 0140654 244.9523 139.7364 2.00566596122303

Satellite not in orbit

GPS BIIR-12